Regional Weather Roundup
Issued by NWS

Home | Current Version | Previous Version | Graphics & Text | Print | Product List | Glossary On
Versions: 1 2 3 4 5 6 7 8 9 10 11 12 13 14 15 16 17 18 19 20 21 22 23 24 25 26 27 28 29 30 31 32 33 34 35 36 37 38 39 40 41 42 43 44 45 46 47 48 49 50
000
ASUS43 KIND 242009
RWRIN

WEATHER ROUNDUP FOR INDIANA
NATIONAL WEATHER SERVICE INDIANAPOLIS IN
400 PM EDT FRI OCT 24 2014

NOTE: "FAIR" INDICATES FEW OR NO CLOUDS BELOW 12,000 FEET WITH NO
SIGNIFICANT WEATHER AND/OR OBSTRUCTIONS TO VISIBILITY.

* - STATION DOES NOT REPORT WEATHER SUCH AS PRECIPITATION OR FOG.

+ - STATION NOT QUALITY CONTROLLED BY THE NATIONAL WEATHER SERVICE.
    USE DATA WITH CAUTION...ESPECIALLY DEWPOINT AND RELATIVE
    HUMIDITY OBSERVATIONS.

INZ001>003-010>013-019-020-242100-
NORTHWEST INDIANA

CITY           SKY/WX    TMP DP  RH WIND       PRES   REMARKS
GARY /AIRPORT/ MOSUNNY   66  50  55 SW7       29.98F
KNOX *+        PTSUNNY   66  49  54 SW5       29.98F
LA PORTE +     PTSUNNY   66  51  57 SW8       29.99F
MICHIGAN CITY+ PTSUNNY   61  46  59 NW6       30.00R
MONTICELLO +   PTSUNNY   64  53  69 W9        30.00F
RENSSELAER +   PTSUNNY   68  48  49 W10G16    29.99F
VALPARAISO     PTSUNNY   65  49  56 W12       29.99F

$$

LMZ046-743>745-242100-
SOUTHERN LAKE MICHIGAN

STATION/POSITION TIME  TEMP WIND        PRES
                       AIR  DIR/SP/G
                 (UTC) (F)  (DEG/KT/KT) (MB)
MICHIGAN CITY    2000   56  350/  5/  6   N/A

$$

INZ004-005-014>016-021>024-242100-
NORTH CENTRAL INDIANA

CITY           SKY/WX    TMP DP  RH WIND       PRES   REMARKS
ELKHART        MOSUNNY   64  48  55 W5        29.99F
GOSHEN         MOSUNNY   64  50  60 SW10      29.99F
LOGANSPORT +   PTSUNNY   63  52  67 W8        30.02S
PERU/GRISSOM   MOSUNNY   65  56  71 W9        30.00F
ROCHESTER +    MOSUNNY   66  52  59 SW9       30.00F
SOUTH BEND     MOSUNNY   64  48  56 SW10      29.99F
WARSAW +       CLOUDY    63  52  67 SW7       30.00S

$$

INZ006>009-017-018-025>027-242100-
NORTHEAST INDIANA

CITY           SKY/WX    TMP DP  RH WIND       PRES   REMARKS
ANGOLA *+        N/A     61  52  72 SW7       30.00R
AUBURN +       MOSUNNY   61  46  59 SW6       30.02S
FORT WAYNE     PTSUNNY   62  48  60 SW6       30.02F
HUNTINGTON +   MOSUNNY   64  51  64 W6        30.00F

$$

INZ028-029-035-036-043>045-051>053-242100-
WEST CENTRAL INDIANA

CITY           SKY/WX    TMP DP  RH WIND       PRES   REMARKS
CRAWFORDSVL +  MOSUNNY   64  50  59 W6        30.02
GREENCASTLE +  MOSUNNY   64  52  63 W6        30.04S
LAFAYETTE      PTSUNNY   64  53  67 SW9       30.01F
TERRE HAUTE    HAZE      67  52  58 W9        30.03F VSB 1

$$

INZ030>032-037>040-046>048-054>057-064-065-242100-
CENTRAL INDIANA

CITY           SKY/WX    TMP DP  RH WIND       PRES   REMARKS
ANDERSON       SUNNY     64  45  48 W12       30.04F
CP ATTERBURY + SUNNY     66  48  52 CALM      30.04F
COLUMBUS       MOSUNNY   64  46  52 S6        30.04F
FRANKFORT +    MOSUNNY   66  53  62 SW7       30.04S
GREENWOOD *+   SUNNY     64  46  52 SW3       30.04
INDIANAPOLIS   PTSUNNY   64  49  57 S6        30.02F
-EAGLE CREEK   SUNNY     66  49  54 S5        30.02F
KOKOMO *+      MOSUNNY   66  52  59 SW8       30.01F
MARION +       MOSUNNY   63  48  59 SW9       30.02F
MT COMFORT *+  MOSUNNY   63  45  51 W6        30.04F
SHELBYVILLE    MOSUNNY   67  48  50 SW5       30.03F
ZIONSVILLE +   SUNNY     66  49  54 S7        30.03F

$$

INZ033-034-041-042-049-050-058-059-242100-
EAST CENTRAL INDIANA

CITY           SKY/WX    TMP DP  RH WIND       PRES   REMARKS
MUNCIE         SUNNY     64  45  49 SW8       30.02F

$$

INZ060-061-067>069-081>083-085>088-242100-
SOUTHWEST INDIANA

CITY           SKY/WX    TMP DP  RH WIND       PRES   REMARKS
EVANSVILLE     MOSUNNY   68  50  52 S7        30.06F
HUNTINGBURG *+ SUNNY     68  52  56 W6        30.05F
WASHINGTON +   MOSUNNY   68  53  57 W9        30.04S

$$

INZ062-063-066-070>080-084-089>092-242100-
SOUTH CENTRAL AND SOUTHEAST INDIANA

CITY           SKY/WX    TMP DP  RH WIND       PRES   REMARKS
BEDFORD +      SUNNY     66  46  48 W7        30.04
BLOOMINGTON    SUNNY     67  49  52 W6        30.04F
NORTH VERNON + SUNNY     66  45  45 SW6       30.05

$$




USA.gov is the U.S. government's official web portal to all federal, state and local government web resources and services.